Location: Poughquag
(41.6090°N, 73.6820°W)
Time: 14:55:26
(UTC-04:00)

Courier 1B - Pass Details

Date: 31 May 2020
Orbit: 962 x 1209 km, 28.3° (Epoch: 05 July)

Event Time Altitude Azimuth Distance (km) Brightness Sun altitude
Exits shadow 01:48:31 20° 133° (SE) 2,467 9.3 -25.1°
Drops below altitude 10° 01:51:15 10° 118° (ESE) 3,141 10.0 -25.0°
Sets 01:54:30 0° 108° (ESE) 4,105 10.7 -24.8°
